This is the latest recevied weather packets stored in our database for station/object K3SV. If no packets are shown the sender has not sent any weather packets the latest 1 day(s).
| Time | Temp. | Humidity | Pressure | Rain* | Wind** | Luminosity | Snow |
|---|---|---|---|---|---|---|---|
| 1778023421 | 28.89° C | 46% | 1013.9 hPa | 0 mm | 0 m/s | 46 W/m² | - |
| 1778023117 | 28.89° C | 46% | 1014 hPa | 0 mm | 0.45 m/s, 40° | 52 W/m² | - |
| 1778022815 | 28.89° C | 47% | 1013.8 hPa | 0 mm | 0 m/s | 51 W/m² | - |
| 1778022513 | 28.89° C | 47% | 1013.8 hPa | 0 mm | 0 m/s | 52 W/m² | - |
| 1778022210 | 28.89° C | 46% | 1013.9 hPa | 0 mm | 0 m/s | 55 W/m² | - |
| 1778021901 | 29.44° C | 46% | 1013.9 hPa | 0 mm | 0 m/s | 64 W/m² | - |
| 1778021599 | 29.44° C | 46% | 1013.9 hPa | 0 mm | 0 m/s | 65 W/m² | - |
| 1778021293 | 29.44° C | 45% | 1014.2 hPa | 0 mm | 0 m/s | 54 W/m² | - |
| 1778020992 | 30° C | 44% | 1014.3 hPa | 0 mm | 0 m/s | 55 W/m² | - |
| 1778020689 | 30° C | 44% | 1014.1 hPa | 0 mm | 0 m/s | 66 W/m² | - |
| 1778020386 | 30° C | 43% | 1014.1 hPa | 0 mm | 0 m/s | 85 W/m² | - |
| 1778020081 | 30° C | 42% | 1014 hPa | 0 mm | 0.45 m/s, 169° | 94 W/m² | - |
| 1778019777 | 30° C | 42% | 1014.2 hPa | 0 mm | 0 m/s | 98 W/m² | - |
| 1778019474 | 30° C | 42% | 1014.2 hPa | 0 mm | 0 m/s | 93 W/m² | - |
| 1778019171 | 30° C | 43% | 1014.1 hPa | 0 mm | 0 m/s | 95 W/m² | - |
| 1778018867 | 30° C | 42% | 1014.1 hPa | 0 mm | 1.34 m/s, 187° | 106 W/m² | - |
| 1778018565 | 31.11° C | 41% | 1013.9 hPa | 0 mm | 0 m/s | 104 W/m² | - |
| 1778018263 | 31.11° C | 39% | 1013.9 hPa | 0 mm | 0 m/s | 244 W/m² | - |
| 1778017960 | 31.67° C | 39% | 1014 hPa | 0 mm | 0.89 m/s, 312° | 232 W/m² | - |
| 1778017658 | 32.22° C | 40% | 1014 hPa | 0 mm | 0 m/s | 321 W/m² | - |
| 1778017355 | 31.67° C | 41% | 1014.1 hPa | 0 mm | 0 m/s | 338 W/m² | - |
| 1778017052 | 30.56° C | 41% | 1013.9 hPa | 0 mm | 0.45 m/s, 64° | 338 W/m² | - |
| 1778016750 | 31.11° C | 40% | 1014 hPa | 0 mm | 2.24 m/s, 21° | 377 W/m² | - |
| 1778016446 | 32.22° C | 39% | 1014 hPa | 0 mm | 0.45 m/s, 271° | 334 W/m² | - |
| 1778016144 | 31.67° C | 40% | 1013.9 hPa | 0 mm | 0 m/s | 361 W/m² | - |
* Rain latest hour (hover to see other rain measurements)
** Current wind speed in m/s (hover to see current wind gust speed)